Вернуться в каталог

SCOUT B-1 DEB

АктивенPO
NORAD 6284·DEBRIS·🇺🇸 United States

Запущен Sep 2, 1972 с Vandenberg Space Force Base

Loading…

Ближайшие Пролёты (ближайшие 24 часа)

TLE

СвежийSource: Space-Track

Эпоха: Sep 13, 2026, 17:38 UTC

1 06284U 72069D   26256.73532194  .00001697  00000-0  25069-3 0  9997
2 06284  90.4663 354.2272 0035417 227.7698 132.0516 14.74550240761392

Отслеживайте SCOUT B-1 DEB в реальном времени с AllMySat

Download on the App Store